TimeCDT,TemperatureF,Dew PointF,Humidity,Sea Level PressureIn,VisibilityMPH,Wind Direction,Wind SpeedMPH,Gust SpeedMPH,PrecipitationIn,Events,Conditions,WindDirDegrees,DateUTC
12:15 AM,80.6,64.4,58,30.04,10.0,Calm,Calm,-,N/A,,Partly Cloudy,0,2013-08-01 05:15:00
12:35 AM,80.6,64.4,58,30.04,10.0,Calm,Calm,-,N/A,,Scattered Clouds,0,2013-08-01 05:35:00
12:55 AM,80.6,66.2,61,30.04,10.0,Calm,Calm,-,N/A,,Clear,0,2013-08-01 05:55:00
1:15 AM,78.8,64.4,61,30.04,10.0,Calm,Calm,-,N/A,,Clear,0,2013-08-01 06:15:00
1:35 AM,78.8,64.4,61,30.04,10.0,Calm,Calm,-,N/A,,Clear,0,2013-08-01 06:35:00
1:55 AM,78.8,64.4,61,30.04,10.0,Calm,Calm,-,N/A,,Clear,0,2013-08-01 06:55:00
2:15 AM,75.2,64.4,69,30.04,10.0,Calm,Calm,-,N/A,,Clear,0,2013-08-01 07:15:00
2:35 AM,75.2,66.2,73,30.04,10.0,Calm,Calm,-,N/A,,Clear,0,2013-08-01 07:35:00
2:55 AM,75.2,64.4,69,30.04,10.0,Calm,Calm,-,N/A,,Clear,0,2013-08-01 07:55:00
3:15 AM,73.4,66.2,78,30.04,10.0,Calm,Calm,-,N/A,,Clear,0,2013-08-01 08:15:00
3:35 AM,75.2,64.4,69,30.04,10.0,Calm,Calm,-,N/A,,Clear,0,2013-08-01 08:35:00
3:55 AM,75.2,66.2,73,30.05,10.0,Calm,Calm,-,N/A,,Clear,0,2013-08-01 08:55:00
4:15 AM,73.4,64.4,73,30.05,10.0,Calm,Calm,-,N/A,,Clear,0,2013-08-01 09:15:00
4:35 AM,73.4,64.4,73,30.05,10.0,Calm,Calm,-,N/A,,Clear,0,2013-08-01 09:35:00
4:55 AM,73.4,64.4,73,30.05,10.0,Calm,Calm,-,N/A,,Clear,0,2013-08-01 09:55:00
5:15 AM,73.4,66.2,78,30.05,10.0,Calm,Calm,-,N/A,,Clear,0,2013-08-01 10:15:00
5:35 AM,71.6,64.4,78,30.06,10.0,Calm,Calm,-,N/A,,Clear,0,2013-08-01 10:35:00
5:55 AM,71.6,64.4,78,30.06,10.0,Calm,Calm,-,N/A,,Clear,0,2013-08-01 10:55:00
6:15 AM,71.6,64.4,78,30.07,10.0,Calm,Calm,-,N/A,,Clear,0,2013-08-01 11:15:00
6:35 AM,71.6,64.4,78,30.07,10.0,Calm,Calm,-,N/A,,Clear,0,2013-08-01 11:35:00
6:55 AM,71.6,64.4,78,30.08,10.0,Calm,Calm,-,N/A,,Partly Cloudy,0,2013-08-01 11:55:00
7:15 AM,73.4,66.2,78,30.08,10.0,Calm,Calm,-,N/A,,Scattered Clouds,0,2013-08-01 12:15:00
7:35 AM,75.2,66.2,73,30.08,10.0,Calm,Calm,-,N/A,,Scattered Clouds,0,2013-08-01 12:35:00
7:55 AM,77.0,64.4,65,30.08,10.0,Calm,Calm,-,N/A,,Scattered Clouds,0,2013-08-01 12:55:00
8:15 AM,80.6,66.2,61,30.09,10.0,Calm,Calm,-,N/A,,Scattered Clouds,0,2013-08-01 13:15:00
8:35 AM,82.4,64.4,54,30.09,10.0,Calm,Calm,-,N/A,,Partly Cloudy,0,2013-08-01 13:35:00
8:55 AM,84.2,66.2,55,30.09,10.0,Calm,Calm,-,N/A,,Scattered Clouds,0,2013-08-01 13:55:00
9:15 AM,84.2,68.0,58,30.09,8.0,Calm,Calm,-,N/A,,Partly Cloudy,0,2013-08-01 14:15:00
9:35 AM,84.2,68.0,58,30.09,9.0,Calm,Calm,-,N/A,,Clear,0,2013-08-01 14:35:00
9:55 AM,87.8,68.0,52,30.09,10.0,West,6.9,-,N/A,,Partly Cloudy,270,2013-08-01 14:55:00
10:15 AM,87.8,68.0,52,30.09,10.0,WSW,4.6,-,N/A,,Partly Cloudy,250,2013-08-01 15:15:00
10:35 AM,87.8,68.0,52,30.09,10.0,West,6.9,-,N/A,,Scattered Clouds,260,2013-08-01 15:35:00
10:55 AM,89.6,68.0,49,30.09,10.0,NW,6.9,-,N/A,,Mostly Cloudy,310,2013-08-01 15:55:00
11:15 AM,89.6,68.0,49,30.09,10.0,Calm,Calm,-,N/A,,Mostly Cloudy,0,2013-08-01 16:15:00
11:35 AM,89.6,68.0,49,30.09,10.0,Calm,Calm,-,N/A,,Mostly Cloudy,0,2013-08-01 16:35:00
11:55 AM,91.4,66.2,43,30.09,10.0,Calm,Calm,-,N/A,,Partly Cloudy,0,2013-08-01 16:55:00
12:15 PM,91.4,66.2,43,30.08,10.0,WNW,3.5,-,N/A,,Partly Cloudy,300,2013-08-01 17:15:00
12:35 PM,-9999,-9999,N/A,30.07,-9999.0,Calm,Calm,-,N/A,,Unknown,0,2013-08-01 17:35:00
12:55 PM,95.0,64.4,36,30.06,10.0,Calm,Calm,-,N/A,,Partly Cloudy,0,2013-08-01 17:55:00
1:15 PM,96.8,64.4,34,30.06,10.0,Calm,Calm,-,N/A,,Partly Cloudy,0,2013-08-01 18:15:00
1:35 PM,-9999,-9999,N/A,-9999,-9999.0,North,-9999.0,-,N/A,,Unknown,0,2013-08-01 18:35:00
1:55 PM,98.6,62.6,30,30.04,10.0,NNE,3.5,-,N/A,,Partly Cloudy,20,2013-08-01 18:55:00
2:15 PM,98.6,62.6,30,30.03,10.0,Calm,Calm,-,N/A,,Mostly Cloudy,0,2013-08-01 19:15:00
2:35 PM,-9999,-9999,N/A,30.02,-9999.0,NE,4.6,-,N/A,,Unknown,50,2013-08-01 19:35:00
2:55 PM,100.4,62.6,29,30.02,10.0,Calm,Calm,-,N/A,,Partly Cloudy,0,2013-08-01 19:55:00
3:15 PM,102.2,62.6,27,30.01,10.0,ENE,5.8,-,N/A,,Clear,70,2013-08-01 20:15:00
3:35 PM,102.2,62.6,27,30.00,10.0,South,3.5,-,N/A,,Clear,190,2013-08-01 20:35:00
3:55 PM,100.4,62.6,29,29.99,10.0,East,5.8,-,N/A,,Clear,90,2013-08-01 20:55:00
4:15 PM,102.2,62.6,27,29.99,10.0,SE,8.1,-,N/A,,Clear,140,2013-08-01 21:15:00
4:35 PM,102.2,62.6,27,29.98,10.0,East,4.6,-,N/A,,Clear,80,2013-08-01 21:35:00
4:55 PM,102.2,62.6,27,29.98,10.0,ESE,6.9,-,N/A,,Clear,110,2013-08-01 21:55:00
5:15 PM,100.4,62.6,29,29.97,10.0,Calm,Calm,-,N/A,,Clear,0,2013-08-01 22:15:00
5:35 PM,102.2,62.6,27,29.96,10.0,East,4.6,-,N/A,,Clear,100,2013-08-01 22:35:00
5:55 PM,100.4,62.6,29,29.96,10.0,ESE,4.6,-,N/A,,Clear,110,2013-08-01 22:55:00
6:15 PM,100.4,64.4,31,29.95,10.0,SE,6.9,-,N/A,,Clear,140,2013-08-01 23:15:00
6:35 PM,100.4,62.6,29,29.95,10.0,SE,5.8,-,N/A,,Clear,140,2013-08-01 23:35:00
6:55 PM,98.6,64.4,32,29.95,10.0,East,9.2,-,N/A,,Clear,90,2013-08-01 23:55:00
7:15 PM,98.6,62.6,30,29.95,10.0,SE,6.9,-,N/A,,Clear,130,2013-08-02 00:15:00
7:35 PM,98.6,62.6,30,29.95,10.0,SE,3.5,-,N/A,,Clear,130,2013-08-02 00:35:00
7:55 PM,96.8,62.6,32,29.95,10.0,SE,8.1,-,N/A,,Clear,140,2013-08-02 00:55:00
8:15 PM,95.0,62.6,34,29.96,10.0,SE,5.8,-,N/A,,Clear,140,2013-08-02 01:15:00
8:35 PM,93.2,64.4,38,29.96,10.0,Calm,Calm,-,N/A,,Clear,0,2013-08-02 01:35:00
8:55 PM,91.4,64.4,41,29.97,10.0,Calm,Calm,-,N/A,,Clear,0,2013-08-02 01:55:00
9:15 PM,89.6,64.4,43,29.98,10.0,Calm,Calm,-,N/A,,Clear,0,2013-08-02 02:15:00
9:35 PM,87.8,64.4,46,29.98,10.0,Calm,Calm,-,N/A,,Clear,0,2013-08-02 02:35:00
9:55 PM,87.8,64.4,46,29.98,10.0,Calm,Calm,-,N/A,,Clear,0,2013-08-02 02:55:00
10:15 PM,84.2,64.4,51,29.98,10.0,Calm,Calm,-,N/A,,Clear,0,2013-08-02 03:15:00
10:35 PM,84.2,64.4,51,29.99,10.0,Calm,Calm,-,N/A,,Clear,0,2013-08-02 03:35:00
10:55 PM,84.2,64.4,51,29.99,10.0,Calm,Calm,-,N/A,,Clear,0,2013-08-02 03:55:00
11:15 PM,84.2,64.4,51,29.99,10.0,Calm,Calm,-,N/A,,Clear,0,2013-08-02 04:15:00
11:35 PM,84.2,64.4,51,29.99,10.0,Calm,Calm,-,N/A,,Clear,0,2013-08-02 04:35:00
11:55 PM,82.4,66.2,58,29.99,10.0,Calm,Calm,-,N/A,,Clear,0,2013-08-02 04:55:00